sat.trackr.live / text

‹ back to catalog

IRIDE-MS2-HEO-4

NORAD 64582 · 2025-135BG

PAYLOAD ACTIVE UNKNOWN

§ Identity

Operator
Country
IT
Launch date
2025-06-23
Launch site
AFWTR
Launch vehicle
Mass (kg)
RCS (m²)

External: N2YO · Heavens-Above · Gunter

§ Orbital elements

Epoch: 2026-09-21T21:27:43.284672Z

Period
96.52 min
Inclination
97.7806°
Eccentricity
0.0001997
Mean motion
14.91966682 rev/d
Perigee alt
590.4 km
Apogee alt
593.2 km
Semi-major
6,969.9 km
B*
8.9304e-5
RAAN
17.9538°
Arg perigee
64.4105°
Mean anomaly
295.7320°
Rev number
6,831

§ Raw data

IRIDE-MS2-HEO-41 64582U 25135BG  26264.89425098  .00000848  00000+0  89304-4 0  99932 64582  97.7806  17.9538 0001997  64.4105 295.7320 14.91966682 68311

JSON: /api/v1/satellites/64582 · /tle

For live sub-satellite position, see the globe view (requires WebGL).

§ Visibility from observer

Set your observer location to see the next 7 days of passes ≥ 10°. The values pass through the URL so the page stays shareable.

No JS? Fill the form by hand. The geolocation button needs JavaScript.

§ Radio — SatNOGS DB

ModeDescriptionDownlinkUplink
FM Mode S - Transmitter 2.264 GHz

1 transmitter · refreshed weekly from db.satnogs.org